Ty Dolese — WDH7645 — position and weather

sailwx.info

Track history (hours):
 
Tides and Currents Weather Stations Pressure Air Temp Water Temp Dewpoint Dewpoint Depression Visibility Wind Speed Wind Dir Waves Ship Positions

Ty Dolese

Owner: Florida Marine, LLC, Mandeville, LA. More information available from US FCC via Universal Licensing System and Coast Guard Vessel Documentation Center.

Last reported at 2018-Feb-21 18:06 UTC. Time now 2018-Feb-21 22:53 UTC.
Position N 38°36' W 090°11'.

Length 27 m; draft 2.9 m.

Type: Other ship. MMSI: 367650190.

Date/timePositionNaut miles runAvg speedWind from/ knotsBaromVisibWave heightAir tempDewpointWater temp
2018-Feb-21 18:06N 38°36' W 090°11'1 9.4
2018-Feb-21 17:59N 38°37' W 090°11'4 8.0
2018-Feb-21 17:30N 38°41' W 090°11'1 2.5
2018-Feb-21 16:58N 38°42' W 090°11'2 3.7
2018-Feb-21 16:30N 38°44' W 090°10'3 6.1
2018-Feb-21 15:57N 38°47' W 090°08'3 6.4
2018-Feb-21 15:30N 38°49' W 090°07'3 5.9
2018-Feb-21 15:00N 38°52' W 090°09'0 0.6
2018-Feb-21 14:30N 38°52' W 090°09'0 0.0
2018-Feb-21 14:00N 38°52' W 090°09'0 0.0
2018-Feb-21 13:30N 38°52' W 090°09'0 0.5
2018-Feb-21 13:00N 38°52' W 090°09'2 3.7
2018-Feb-21 12:30N 38°53' W 090°11'3 6.6
2018-Feb-21 12:00N 38°55' W 090°14'3 6.3
2018-Feb-21 11:30N 38°55' W 090°19'3 6.5
2018-Feb-21 11:00N 38°57' W 090°22'3 6.8
2018-Feb-21 10:30N 38°58' W 090°26'3 5.8
2018-Feb-21 10:00N 38°58' W 090°30'2 4.5
2018-Feb-21 09:30N 38°58' W 090°33'3 5.7
2018-Feb-21 09:00N 39°01' W 090°35'3 5.1
2018-Feb-21 08:28N 39°03' W 090°35'2 5.2
2018-Feb-21 08:00N 39°06' W 090°36'3 5.6
2018-Feb-21 07:28N 39°09' W 090°37'  
2018-Feb-14 09:05N 39°12' W 090°36'1 5.1
2018-Feb-14 08:57N 39°11' W 090°36'2 2.1
2018-Feb-14 07:48N 39°09' W 090°37'1 4.9
2018-Feb-14 07:30N 39°07' W 090°36'3 5.2
2018-Feb-14 07:00N 39°05' W 090°35'2 4.7
2018-Feb-14 06:30N 39°03' W 090°35'3 5.2
2018-Feb-14 06:00N 38°60' W 090°34'1 2.3
2018-Feb-14 05:30N 38°59' W 090°34'2 4.4
2018-Feb-14 05:00N 38°57' W 090°32'3 5.3
2018-Feb-14 04:30N 38°58' W 090°28'3 5.5
2018-Feb-14 04:00N 38°58' W 090°25'3 5.3
2018-Feb-14 03:30N 38°57' W 090°22'3 5.4
2018-Feb-14 02:58N 38°55' W 090°19'3 5.5
2018-Feb-14 02:30N 38°55' W 090°15'3 5.4
2018-Feb-14 02:00N 38°54' W 090°12'3 5.4
2018-Feb-14 01:29N 38°52' W 090°09'0 0.6
2018-Feb-14 00:56N 38°52' W 090°09'0 0.2
2018-Feb-14 00:30N 38°52' W 090°09'0 0.4
2018-Feb-14 00:00N 38°52' W 090°09'0 0.1
2018-Feb-13 23:29N 38°52' W 090°09'0 0.9
2018-Feb-13 23:00N 38°52' W 090°09'2 4.1
2018-Feb-13 22:30N 38°51' W 090°06'1 1.4
2018-Feb-13 22:00N 38°50' W 090°07'1 2.9
2018-Feb-13 21:30N 38°48' W 090°07'3 5.3
2018-Feb-13 20:59N 38°46' W 090°08'2 2.5
2018-Feb-13 20:22N 38°45' W 090°09'2 4.5
2018-Feb-13 19:56N 38°43' W 090°10'1 1.8
2018-Feb-13 19:11N 38°42' W 090°11'1 3.9
2018-Feb-13 19:00N 38°41' W 090°11'2 4.1
2018-Feb-13 18:27N 38°39' W 090°11'4 1.3
2018-Feb-13 15:46N 38°35' W 090°12'0 0.0
2018-Feb-13 03:47N 38°35' W 090°12'0 0.0
2018-Feb-12 02:23N 38°36' W 090°12'2 2.6
2018-Feb-12 01:39N 38°37' W 090°11'1 7.5
2018-Feb-12 01:28N 38°39' W 090°11'4 3.4
2018-Feb-12 00:26N 38°42' W 090°11'1 3.3
2018-Feb-12 00:00N 38°43' W 090°10'0 0.7
2018-Feb-11 23:30N 38°44' W 090°10'1 1.7
2018-Feb-11 23:00N 38°44' W 090°09'1 1.9
2018-Feb-11 22:17N 38°46' W 090°08'1 4.4
2018-Feb-11 22:00N 38°47' W 090°08'3 5.6
2018-Feb-11 21:30N 38°50' W 090°07'3 5.2
2018-Feb-11 21:00N 38°52' W 090°08'0 0.3
2018-Feb-11 20:30N 38°52' W 090°08'0 0.0
2018-Feb-11 20:00N 38°52' W 090°08'0 0.0
2018-Feb-11 19:30N 38°52' W 090°08'0 0.0
2018-Feb-11 19:00N 38°52' W 090°08'0 0.0
2018-Feb-11 18:30N 38°52' W 090°08'  
Track history (hours):
 
Tides and Currents Weather Stations Pressure Air Temp Water Temp Dewpoint Dewpoint Depression Visibility Wind Speed Wind Dir Waves Ship Positions

Ty Dolese

Owner: Florida Marine, LLC, Mandeville, LA. More information available from US FCC via Universal Licensing System and Coast Guard Vessel Documentation Center.

Last reported at 2018-Feb-21 18:06 UTC. Time now 2018-Feb-21 22:53 UTC.
Position N 38°36' W 090°11'.

Length 27 m; draft 2.9 m.

Type: Other ship. MMSI: 367650190.

Date/timePositionNaut miles runAvg speedWind from/ knotsBaromVisibWave heightAir tempDewpointWater temp
2018-Feb-21 18:06N 38°36' W 090°11'1 9.4
2018-Feb-21 17:59N 38°37' W 090°11'4 8.0
2018-Feb-21 17:30N 38°41' W 090°11'1 2.5
2018-Feb-21 16:58N 38°42' W 090°11'2 3.7
2018-Feb-21 16:30N 38°44' W 090°10'3 6.1
2018-Feb-21 15:57N 38°47' W 090°08'3 6.4
2018-Feb-21 15:30N 38°49' W 090°07'3 5.9
2018-Feb-21 15:00N 38°52' W 090°09'0 0.6
2018-Feb-21 14:30N 38°52' W 090°09'0 0.0
2018-Feb-21 14:00N 38°52' W 090°09'0 0.0
2018-Feb-21 13:30N 38°52' W 090°09'0 0.5
2018-Feb-21 13:00N 38°52' W 090°09'2 3.7
2018-Feb-21 12:30N 38°53' W 090°11'3 6.6
2018-Feb-21 12:00N 38°55' W 090°14'3 6.3
2018-Feb-21 11:30N 38°55' W 090°19'3 6.5
2018-Feb-21 11:00N 38°57' W 090°22'3 6.8
2018-Feb-21 10:30N 38°58' W 090°26'3 5.8
2018-Feb-21 10:00N 38°58' W 090°30'2 4.5
2018-Feb-21 09:30N 38°58' W 090°33'3 5.7
2018-Feb-21 09:00N 39°01' W 090°35'3 5.1
2018-Feb-21 08:28N 39°03' W 090°35'2 5.2
2018-Feb-21 08:00N 39°06' W 090°36'3 5.6
2018-Feb-21 07:28N 39°09' W 090°37'  
2018-Feb-14 09:05N 39°12' W 090°36'1 5.1
2018-Feb-14 08:57N 39°11' W 090°36'2 2.1
2018-Feb-14 07:48N 39°09' W 090°37'1 4.9
2018-Feb-14 07:30N 39°07' W 090°36'3 5.2
2018-Feb-14 07:00N 39°05' W 090°35'2 4.7
2018-Feb-14 06:30N 39°03' W 090°35'3 5.2
2018-Feb-14 06:00N 38°60' W 090°34'1 2.3
2018-Feb-14 05:30N 38°59' W 090°34'2 4.4
2018-Feb-14 05:00N 38°57' W 090°32'3 5.3
2018-Feb-14 04:30N 38°58' W 090°28'3 5.5
2018-Feb-14 04:00N 38°58' W 090°25'3 5.3
2018-Feb-14 03:30N 38°57' W 090°22'3 5.4
2018-Feb-14 02:58N 38°55' W 090°19'3 5.5
2018-Feb-14 02:30N 38°55' W 090°15'3 5.4
2018-Feb-14 02:00N 38°54' W 090°12'3 5.4
2018-Feb-14 01:29N 38°52' W 090°09'0 0.6
2018-Feb-14 00:56N 38°52' W 090°09'0 0.2
2018-Feb-14 00:30N 38°52' W 090°09'0 0.4
2018-Feb-14 00:00N 38°52' W 090°09'0 0.1
2018-Feb-13 23:29N 38°52' W 090°09'0 0.9
2018-Feb-13 23:00N 38°52' W 090°09'2 4.1
2018-Feb-13 22:30N 38°51' W 090°06'1 1.4
2018-Feb-13 22:00N 38°50' W 090°07'1 2.9
2018-Feb-13 21:30N 38°48' W 090°07'3 5.3
2018-Feb-13 20:59N 38°46' W 090°08'2 2.5
2018-Feb-13 20:22N 38°45' W 090°09'2 4.5
2018-Feb-13 19:56N 38°43' W 090°10'1 1.8
2018-Feb-13 19:11N 38°42' W 090°11'1 3.9
2018-Feb-13 19:00N 38°41' W 090°11'2 4.1
2018-Feb-13 18:27N 38°39' W 090°11'4 1.3
2018-Feb-13 15:46N 38°35' W 090°12'0 0.0
2018-Feb-13 03:47N 38°35' W 090°12'0 0.0
2018-Feb-12 02:23N 38°36' W 090°12'2 2.6
2018-Feb-12 01:39N 38°37' W 090°11'1 7.5
2018-Feb-12 01:28N 38°39' W 090°11'4 3.4
2018-Feb-12 00:26N 38°42' W 090°11'1 3.3
2018-Feb-12 00:00N 38°43' W 090°10'0 0.7
2018-Feb-11 23:30N 38°44' W 090°10'1 1.7
2018-Feb-11 23:00N 38°44' W 090°09'1 1.9
2018-Feb-11 22:17N 38°46' W 090°08'1 4.4
2018-Feb-11 22:00N 38°47' W 090°08'3 5.6
2018-Feb-11 21:30N 38°50' W 090°07'3 5.2
2018-Feb-11 21:00N 38°52' W 090°08'0 0.3
2018-Feb-11 20:30N 38°52' W 090°08'0 0.0
2018-Feb-11 20:00N 38°52' W 090°08'0 0.0
2018-Feb-11 19:30N 38°52' W 090°08'0 0.0
2018-Feb-11 19:00N 38°52' W 090°08'0 0.0
2018-Feb-11 18:30N 38°52' W 090°08'  

Dump ship's entire track history